{"data":{"norad_id":65361,"epoch":"2026-09-20T22:23:36.188736Z","epoch_age_seconds":80518,"freshness":"FRESH","line1":"1 65361U 25190L   26263.93305774  .00015073  00000+0  45622-3 0  9992","line2":"2 65361  53.1599 339.4651 0001385  79.2839 280.8320 15.34408449 59202","mean_motion":15.34408449,"eccentricity":0.0001385,"inclination_deg":53.1599,"raan_deg":339.4651,"arg_perigee_deg":79.2839,"mean_anomaly_deg":280.832,"bstar":0.00045622,"rev_number":5920,"period_min":93.847241322118,"perigee_km":461.73067521855,"apogee_km":463.62558100903,"semimajor_km":6840.8151281138,"source":"CELESTRAK","updated_at":"2026-09-21T09:00:35.577005Z"}}